Harlingen, TX

3:04 AM CDT on July 22, 2017 (GMT -0500)
Valley International

Weather History for KHRL - September, 2013

Change the Weather History Date:

Saturday, September 28, 2013

  Actual Average Record
Temperature  
Mean Temperature 84 °F 80 °F  
Max Temperature 93 °F 89 °F 102 °F (1953)
Min Temperature 75 °F 70 °F 52 °F (1942)
Degree Days  
Heating Degree Days 0 0  
Month to date heating degree days 0 0  
Since 1 July heating degree days 0 0  
Cooling Degree Days 19 14  
Month to date cooling degree days 464 476  
Year to date cooling degree days 3481 3400  
Growing Degree Days 35 (Base 50)    
Moisture  
Dew Point 75 °F    
Average Humidity 73    
Maximum Humidity 97    
Minimum Humidity 49    
Precipitation  
Precipitation 0.00 in 0.16 in 2.80 in (1932)
Month to date precipitation 9.21 4.92  
Year to date precipitation 21.05 19.13  
Sea Level Pressure  
Sea Level Pressure 29.87 in    
Wind  
Wind Speed 12 mph (SE)    
Max Wind Speed 23 mph    
Max Gust Speed 29 mph    
Visibility 10 miles    
Events      
T = Trace of Precipitation, MM = Missing Value Source: NWS Daily Summary

Daily Weather History Graph

Daily Weather History Graph

Search for Another Location

Airport or City:

Trip Planner

Search our weather history database for the weather conditions in past years. The results will help you decide how hot, cold, wet, or windy it might be!

Date:

Astronomy

Sep. 28, 2013 Rise Set
Actual Time 7:21 AM CDT 7:20 PM CDT
Civil Twilight 6:58 AM CDT 7:43 PM CDT
Nautical Twilight 6:31 AM CDT 8:09 PM CDT
Astronomical Twilight 6:05 AM CDT 8:36 PM CDT
Moon 1:39 AM CDT (9/28) 3:12 PM CDT (9/28)
Length of Visible Light 12h 44m
Length of Day
11h 58m
Waning Crescent, 36% of the Moon is Illuminated
Sep 28
Waning Crescent
Oct 4
New
Oct 11
First Quarter
Oct 18
Full
Oct 26
Last Quarter

Hourly Weather History & Observations

Time (CDT) Temp. Heat Index Dew Point Humidity Pressure Visibility Wind Dir Wind Speed Gust Speed Precip Events Conditions
12:52 AM 81.0 °F 87.9 °F 77.0 °F 88% 29.86 in 9.0 mi SSE 10.4 mph - N/A   Clear
1:52 AM 80.1 °F 85.4 °F 75.9 °F 87% 29.86 in 10.0 mi SSE 9.2 mph - N/A   Clear
2:52 AM 79.0 °F - 75.9 °F 90% 29.85 in 10.0 mi SSE 10.4 mph - N/A   Clear
3:52 AM 80.1 °F 85.8 °F 77.0 °F 90% 29.84 in 9.0 mi SE 8.1 mph - N/A   Partly Cloudy
4:27 AM 80.6 °F 87.1 °F 77.0 °F 89% 29.84 in 9.0 mi SE 8.1 mph - N/A   Mostly Cloudy
4:52 AM 80.1 °F 85.8 °F 77.0 °F 90% 29.84 in 9.0 mi SE 8.1 mph - N/A   Scattered Clouds
5:52 AM 79.0 °F - 77.0 °F 94% 29.85 in 8.0 mi SE 6.9 mph - N/A   Partly Cloudy
6:52 AM 79.0 °F - 77.0 °F 94% 29.86 in 9.0 mi SE 9.2 mph - N/A   Clear
7:52 AM 79.0 °F - 77.0 °F 94% 29.86 in 8.0 mi SE 10.4 mph - N/A   Clear
8:52 AM 82.0 °F 90.2 °F 77.0 °F 85% 29.88 in 8.0 mi SSE 12.7 mph - N/A   Clear
9:52 AM 86.0 °F 96.0 °F 75.9 °F 72% 29.89 in 10.0 mi SSE 21.9 mph 27.6 mph N/A   Clear
10:52 AM 89.1 °F 99.1 °F 75.0 °F 63% 29.91 in 10.0 mi SSE 23.0 mph 26.5 mph N/A   Partly Cloudy
11:52 AM 91.0 °F 100.4 °F 73.9 °F 57% 29.91 in 10.0 mi SSE 15.0 mph - N/A   Partly Cloudy
12:52 PM 91.9 °F 100.7 °F 73.0 °F 54% 29.90 in 10.0 mi South 19.6 mph 27.6 mph N/A   Scattered Clouds
1:52 PM 93.0 °F 100.7 °F 72.0 °F 50% 29.88 in 10.0 mi South 16.1 mph - N/A   Partly Cloudy
2:52 PM 91.9 °F 100.7 °F 73.0 °F 54% 29.85 in 10.0 mi SSE 17.3 mph 20.7 mph N/A   Scattered Clouds
3:52 PM 93.0 °F 100.7 °F 72.0 °F 50% 29.83 in 10.0 mi South 15.0 mph - N/A   Scattered Clouds
4:52 PM 91.0 °F 98.2 °F 72.0 °F 53% 29.82 in 10.0 mi SSE 15.0 mph 21.9 mph N/A   Scattered Clouds
5:52 PM 89.1 °F 97.0 °F 73.0 °F 59% 29.83 in 10.0 mi SE 13.8 mph 23.0 mph N/A   Scattered Clouds
6:52 PM 86.0 °F 93.0 °F 73.0 °F 65% 29.85 in 10.0 mi SE 15.0 mph - N/A   Clear
7:52 PM 82.9 °F 89.4 °F 73.9 °F 74% 29.88 in 10.0 mi SE 11.5 mph - N/A   Scattered Clouds
8:52 PM 81.0 °F 86.2 °F 73.9 °F 79% 29.90 in 10.0 mi SE 8.1 mph - N/A   Clear
9:52 PM 79.0 °F - 73.9 °F 84% 29.93 in 10.0 mi ESE 5.8 mph - N/A   Clear
10:52 PM 77.0 °F - 73.9 °F 90% 29.94 in 10.0 mi ESE 4.6 mph - N/A   Clear
11:52 PM 75.9 °F - 73.0 °F 91% 29.94 in 10.0 mi ESE 5.8 mph - N/A   Clear